| time (UTC) | temp C | wind direction | speed KPH | gust KPH | rain 1hr cm | rain 24hr cm | rain mn cm | humidity % | barometer mb |
| 20260508220059 | 21 | 246 | 3.2 | 14.5 | 0.00 | 0.00 | 0.00 | 42 | 958.4 |
| 20260508214559 | 21 | 186 | 0.0 | 9.7 | 0.00 | 0.00 | 0.00 | 43 | 958.3 |
| 20260508213058 | 21 | 236 | 1.6 | 14.5 | 0.00 | 0.00 | 0.00 | 41 | 958.4 |
| 20260508211556 | 21 | 292 | 1.6 | 9.7 | 0.00 | 0.00 | 0.00 | 40 | 958.6 |
| 20260508210054 | 21 | 217 | 1.6 | 8.0 | 0.00 | 0.00 | 0.00 | 41 | 959.0 |
| 20260508204553 | 21 | 288 | 0.0 | 8.0 | 0.00 | 0.00 | 0.00 | 41 | 959.1 |
| 20260508203059 | 21 | 205 | 1.6 | 9.7 | 0.00 | 0.00 | 0.00 | 41 | 959.4 |
| 20260508201559 | 21 | 217 | 3.2 | 11.3 | 0.00 | 0.00 | 0.00 | 40 | 959.5 |
| 20260508200049 | 21 | 259 | 1.6 | 8.0 | 0.00 | 0.00 | 0.00 | 39 | 959.7 |
| 20260508194548 | 21 | 238 | 1.6 | 20.9 | 0.00 | 0.00 | 0.00 | 38 | 959.8 |
| 20260508193046 | 22 | 300 | 3.2 | 16.1 | 0.00 | 0.00 | 0.00 | 37 | 959.8 |
| 20260508191545 | 23 | 355 | 1.6 | 12.9 | 0.00 | 0.00 | 0.00 | 37 | 960.0 |
| 20260508190041 | 22 | 327 | 0.0 | 9.7 | 0.00 | 0.00 | 0.00 | 40 | 960.2 |
| 20260508184542 | 22 | 235 | 6.4 | 20.9 | 0.00 | 0.00 | 0.00 | 37 | 960.5 |
| 20260508183040 | 22 | 261 | 1.6 | 16.1 | 0.00 | 0.00 | 0.00 | 40 | 960.8 |
| 20260508181544 | 22 | 101 | 1.6 | 14.5 | 0.00 | 0.00 | 0.00 | 39 | 961.0 |
| 20260508180033 | 21 | 5 | 1.6 | 12.9 | 0.00 | 0.00 | 0.00 | 38 | 961.2 |
| 20260508174536 | 21 | 257 | 3.2 | 19.3 | 0.00 | 0.00 | 0.00 | 39 | 961.5 |
| 20260508173032 | 22 | 181 | 4.8 | 14.5 | 0.00 | 0.00 | 0.00 | 38 | 961.7 |
| 20260508171527 | 21 | 242 | 3.2 | 12.9 | 0.00 | 0.00 | 0.00 | 41 | 962.0 |
| 20260508170023 | 21 | 264 | 0.0 | 8.0 | 0.00 | 0.00 | 0.00 | 43 | 962.4 |
| 20260508164520 | 21 | 244 | 0.0 | 11.3 | 0.00 | 0.00 | 0.00 | 45 | 962.6 |
| 20260508163019 | 20 | 248 | 3.2 | 12.9 | 0.00 | 0.00 | 0.00 | 46 | 962.9 |
| 20260508161514 | 20 | 252 | 3.2 | 12.9 | 0.00 | 0.00 | 0.00 | 44 | 963.1 |
| 20260508160011 | 20 | 319 | 0.0 | 22.5 | 0.00 | 0.00 | 0.00 | 45 | 963.2 |
| 20260508154509 | 19 | 231 | 3.2 | 17.7 | 0.00 | 0.00 | 0.00 | 46 | 963.5 |
| 20260508153005 | 19 | 322 | 3.2 | 12.9 | 0.00 | 0.00 | 0.00 | 47 | 963.6 |
| 20260508151504 | 18 | 213 | 4.8 | 16.1 | 0.00 | 0.00 | 0.00 | 47 | 963.7 |
| 20260508150100 | 18 | 216 | 0.0 | 14.5 | 0.00 | 0.00 | 0.00 | 48 | 963.9 |
| 20260508144557 | 17 | 119 | 3.2 | 16.1 | 0.00 | 0.00 | 0.00 | 48 | 964.0 |
| 20260508143059 | 17 | 232 | 1.6 | 16.1 | 0.00 | 0.00 | 0.00 | 49 | 964.1 |
| 20260508141612 | 16 | 239 | 4.8 | 19.3 | 0.00 | 0.00 | 0.00 | 49 | 964.3 |
| 20260508140048 | 16 | 245 | 3.2 | 14.5 | 0.00 | 0.00 | 0.00 | 51 | 964.4 |
| 20260508134555 | 15 | 337 | 1.6 | 11.3 | 0.00 | 0.00 | 0.00 | 58 | 964.6 |
| 20260508133039 | 13 | 146 | 0.0 | 4.8 | 0.00 | 0.00 | 0.00 | 67 | 964.7 |
| 20260508131536 | 12 | 137 | 0.0 | 4.8 | 0.00 | 0.00 | 0.00 | 72 | 964.7 |
| 20260508130032 | 11 | 131 | 1.6 | 4.8 | 0.00 | 0.00 | 0.00 | 73 | 964.6 |
| 20260508124527 | 10 | 128 | 0.0 | 4.8 | 0.00 | 0.00 | 0.00 | 78 | 964.7 |
| 20260508123035 | 9 | 134 | 1.6 | 8.0 | 0.00 | 0.00 | 0.00 | 81 | 964.7 |
| 20260508121526 | 8 | 165 | 1.6 | 4.8 | 0.00 | 0.00 | 0.00 | 85 | 964.6 |
| 20260508120022 | 7 | 227 | 0.0 | 0.0 | 0.00 | 0.00 | 0.00 | 86 | 964.7 |
| 20260508114521 | 7 | 227 | 0.0 | 1.6 | 0.00 | 0.00 | 0.00 | 91 | 964.6 |
| 20260508113025 | 6 | 227 | 0.0 | 0.0 | 0.00 | 0.00 | 0.00 | 90 | 964.4 |
| 20260508111519 | 6 | 225 | 0.0 | 0.0 | 0.00 | 0.00 | 0.00 | 92 | 964.4 |
| 20260508110018 | 6 | 224 | 0.0 | 0.0 | 0.00 | 0.00 | 0.00 | 92 | 964.2 |
| 20260508104521 | 6 | 224 | 0.0 | 0.0 | 0.00 | 0.00 | 0.00 | 92 | 964.1 |
| 20260508103017 | 6 | 224 | 0.0 | 0.0 | 0.00 | 0.00 | 0.00 | 92 | 964.1 |
| 20260508101520 | 6 | 224 | 0.0 | 0.0 | 0.00 | 0.00 | 0.00 | 92 | 964.0 |
| 20260508100017 | 6 | 224 | 0.0 | 0.0 | 0.00 | 0.00 | 0.00 | 91 | 964.1 |
| 20260508094515 | 6 | 224 | 0.0 | 0.0 | 0.00 | 0.00 | 0.00 | 91 | 964.0 |
| 20260508093017 | 5 | 224 | 0.0 | 0.0 | 0.00 | 0.00 | 0.00 | 90 | 964.0 |
| 20260508091514 | 6 | 224 | 0.0 | 3.2 | 0.00 | 0.00 | 0.00 | 88 | 964.1 |
| 20260508090022 | 6 | 224 | 0.0 | 3.2 | 0.00 | 0.00 | 0.00 | 89 | 964.0 |
| 20260508084511 | 6 | 224 | 0.0 | 1.6 | 0.00 | 0.00 | 0.00 | 89 | 963.9 |
| 20260508083009 | 6 | 224 | 0.0 | 0.0 | 0.00 | 0.00 | 0.00 | 88 | 963.9 |
| 20260508081509 | 6 | 224 | 0.0 | 0.0 | 0.00 | 0.00 | 0.00 | 88 | 963.8 |
| 20260508080007 | 6 | 224 | 0.0 | 0.0 | 0.00 | 0.00 | 0.00 | 87 | 963.8 |
| 20260508074506 | 6 | 224 | 0.0 | 0.0 | 0.00 | 0.00 | 0.00 | 87 | 963.8 |
| 20260508073005 | 6 | 224 | 0.0 | 0.0 | 0.00 | 0.00 | 0.00 | 88 | 963.8 |
| 20260508071506 | 6 | 224 | 0.0 | 0.0 | 0.00 | 0.00 | 0.00 | 88 | 963.8 |
| 20260508070101 | 7 | 224 | 0.0 | 0.0 | 0.00 | 0.00 | 0.00 | 85 | 963.8 |
| 20260508064558 | 7 | 224 | 0.0 | 1.6 | 0.00 | 0.00 | 0.00 | 85 | 964.1 |
| 20260508063055 | 7 | 224 | 0.0 | 0.0 | 0.00 | 0.00 | 0.00 | 84 | 964.3 |
| 20260508061553 | 8 | 224 | 0.0 | 1.6 | 0.00 | 0.00 | 0.00 | 82 | 964.4 |
| 20260508060050 | 8 | 224 | 0.0 | 1.6 | 0.00 | 0.00 | 0.00 | 81 | 964.5 |
| 20260508054549 | 8 | 224 | 0.0 | 1.6 | 0.00 | 0.00 | 0.00 | 77 | 964.4 |
| 20260508053048 | 8 | 224 | 0.0 | 0.0 | 0.00 | 0.00 | 0.00 | 75 | 964.5 |
| 20260508051545 | 8 | 224 | 0.0 | 1.6 | 0.00 | 0.00 | 0.00 | 75 | 964.3 |
| 20260508050045 | 8 | 224 | 0.0 | 0.0 | 0.00 | 0.00 | 0.00 | 75 | 964.2 |
| 20260508044542 | 8 | 224 | 0.0 | 1.6 | 0.00 | 0.00 | 0.00 | 72 | 964.3 |
| 20260508043044 | 9 | 224 | 0.0 | 3.2 | 0.00 | 0.00 | 0.00 | 70 | 964.2 |
| 20260508041538 | 9 | 290 | 0.0 | 3.2 | 0.00 | 0.00 | 0.00 | 69 | 964.2 |
| 20260508040035 | 9 | 290 | 0.0 | 1.6 | 0.00 | 0.00 | 0.00 | 68 | 964.0 |
| 20260508034534 | 10 | 290 | 0.0 | 0.0 | 0.00 | 0.00 | 0.00 | 66 | 964.2 |
| 20260508033035 | 10 | 290 | 0.0 | 1.6 | 0.00 | 0.00 | 0.00 | 65 | 964.2 |
| 20260508031534 | 10 | 290 | 0.0 | 1.6 | 0.00 | 0.00 | 0.00 | 64 | 964.2 |
| 20260508030037 | 10 | 290 | 0.0 | 3.2 | 0.00 | 0.00 | 0.00 | 64 | 964.1 |
| 20260508024537 | 10 | 290 | 0.0 | 1.6 | 0.00 | 0.00 | 0.00 | 63 | 964.1 |
| 20260508023032 | 11 | 290 | 0.0 | 1.6 | 0.00 | 0.00 | 0.00 | 62 | 964.0 |
| 20260508021541 | 11 | 290 | 0.0 | 1.6 | 0.00 | 0.00 | 0.00 | 57 | 963.9 |
| 20260508020032 | 11 | 290 | 0.0 | 0.0 | 0.00 | 0.00 | 0.00 | 52 | 964.0 |
| 20260508014532 | 11 | 290 | 0.0 | 1.6 | 0.00 | 0.00 | 0.00 | 52 | 964.0 |
| 20260508013039 | 12 | 290 | 0.0 | 0.0 | 0.00 | 0.00 | 0.00 | 49 | 963.9 |
| 20260508011533 | 12 | 290 | 0.0 | 1.6 | 0.00 | 0.00 | 0.00 | 47 | 963.8 |
| 20260508010033 | 13 | 290 | 0.0 | 1.6 | 0.00 | 0.00 | 0.00 | 47 | 963.8 |
| 20260508004537 | 13 | 290 | 0.0 | 1.6 | 0.00 | 0.00 | 0.00 | 45 | 963.7 |
| 20260508003029 | 14 | 300 | 0.0 | 3.2 | 0.00 | 0.00 | 0.00 | 44 | 963.6 |
| 20260508001528 | 14 | 301 | 0.0 | 4.8 | 0.00 | 0.00 | 0.00 | 42 | 963.4 |
| 20260508000028 | 15 | 298 | 0.0 | 1.6 | 0.00 | 0.00 | 0.00 | 42 | 963.4 |
| 20260507234529 | 15 | 290 | 0.0 | 4.8 | 0.00 | 0.00 | 0.00 | 42 | 963.3 |
| 20260507233035 | 15 | 292 | 0.0 | 4.8 | 0.00 | 0.00 | 0.00 | 38 | 963.3 |
| 20260507231527 | 15 | 294 | 0.0 | 4.8 | 0.00 | 0.00 | 0.00 | 38 | 963.2 |
| 20260507230027 | 15 | 331 | 3.2 | 11.3 | 0.00 | 0.00 | 0.00 | 36 | 963.3 |
| 20260507224533 | 15 | 229 | 0.0 | 11.3 | 0.00 | 0.00 | 0.00 | 36 | 963.3 |
| 20260507223026 | 16 | 329 | 1.6 | 6.4 | 0.00 | 0.00 | 0.00 | 38 | 963.3 |
| 20260507221525 | 16 | 355 | 1.6 | 8.0 | 0.00 | 0.00 | 0.00 | 37 | 963.2 |